Hourly Data Report for August 13, 2004

SHERBROOKE A
QUEBEC

45°26'00.000" N
71°41'00.000" W
241.40 m
7028124
71610
YSC

Download Data

Hourly Data (August 2004)
Hourly Data Report for August 13, 2004
TIME
LST
Temp Definition
°C
Dew Point Definition
°C
Rel Hum Definition
%
Precip. Amount Definition
mm

Wind Dir Definition
10's deg

Wind Spd Definition
km/h
Visibility Definition
km
Stn Press Definition
kPa
Hmdx Definition


Wind Chill Definition


Weather Definition


00:00 17.3 16.5 95   5 7 4.0 98.84      
01:00 17.4 16.6 95   5 9 5.6 98.77      
02:00 17.5 16.6 94   4 7 6.4 98.69      
03:00 17.3 16.5 95   4 13 4.0 98.63     Rain
04:00 17.2 16.5 96   4 11 4.8 98.63     Rain
05:00 17.0 16.4 96   6 11 11.3 98.60     Rain
06:00 17.2 16.4 95   9 6 4.8 98.63     Rain
07:00 17.4 16.8 96     0 16.1 98.66     Rain
08:00 17.9 16.8 93   10 4 19.3 98.66     Cloudy
09:00 18.2 17.0 93   10 4 19.3 98.63     Cloudy
10:00 18.2 17.1 93   12 6 12.9 98.64     Rain
11:00 19.2 18.2 94   6 7 19.3 98.58     Cloudy
12:00 19.0 18.0 94   5 7 19.3 98.53     Cloudy
13:00 18.7 18.0 96   3 6 2.4 98.49     Rain Showers, Fog
14:00 20.0 19.3 96   7 13 19.3 98.45 27   Mostly Cloudy
15:00 20.8 19.7 93   9 9 19.3 98.37 28   Rain Showers
16:00 21.2 20.2 94   3 4 19.3 98.34 29   Cloudy
17:00 20.9 20.0 95   9 4 15.0 98.32 28    
18:00 20.5 19.7 95     0 8.0 98.36 28    
19:00 20.3 19.5 95   16 6 15.0 98.37 27    
20:00 20.2 19.4 95     0 11.3 98.41 27   Rain
21:00 20.1 19.4 96   23 4 6.4 98.39 27    
22:00 19.5 18.7 95   27 9 15.0 98.41     Rain
23:00 18.4 17.5 94   27 9 15.0 98.48      

Notes on Data Quality.

Legend

  • E = Estimated
  • M = Missing
  • NA = Not Available*
  • [empty] = Indicates an unobserved value
Date modified: